Weather History for Pecos, TX

Change the Weather History Date:

Sunday, October 2, 2011

  Actual Average Record
Temperature  
Mean Temperature 75 °F -  
Max Temperature 93 °F 88 °F 104 °F (1951)
Min Temperature 57 °F 54 °F 42 °F (1965)
Cooling Degree Days 10    
Growing Degree Days 25 (Base 50)    
Moisture  
Dew Point 43 °F    
Average Humidity 34    
Maximum Humidity 58    
Minimum Humidity 14    
Precipitation  
Precipitation 0.00 in - - ()
Sea Level Pressure  
Sea Level Pressure 30.14 in    
Wind  
Wind Speed 5 mph (ESE)    
Max Wind Speed 16 mph    
Max Gust Speed 23 mph    
Visibility 10 miles    
Events      
Averages and records for this station are not official NWS values.
T = Trace of Precipitation, MM = Missing Value Source: NWS Daily Summary

Daily Weather History Graph

Daily Weather History Graph

Search for Another Location

Airport:

Trip Planner

Search our weather history database for the weather conditions in past years. The results will help you decide how hot, cold, wet, or windy it might be!

Date:

Astronomy

Oct. 02, 2011 Rise Set
Actual Time 7:48 AM CDT 7:38 PM CDT
Civil Twilight 7:24 AM CDT 8:02 PM CDT
Nautical Twilight 6:55 AM CDT 8:30 PM CDT
Astronomical Twilight 6:27 AM CDT 8:58 PM CDT
Moon 1:35 PM CDT (10/2) No Moon Set
Length of Visible Light 12h 38m
Length of Day
11h 49m
Waxing Crescent, 35% of the Moon is Illuminated
Oct 2
Waxing Crescent
Oct 3
First Quarter
Oct 11
Full
Oct 19
Last Quarter
Oct 26
New

Hourly Weather History & Observations

Time (CDT) Temp. Dew Point Humidity Pressure Visibility Wind Dir Wind Speed Gust Speed Precip Events Conditions
12:15 AM 68.7 °F 41.2 °F 37% 30.15 in 10.0 mi SE 5.8 mph - N/A   Clear
12:35 AM 67.6 °F 41.4 °F 38% 30.16 in 10.0 mi SE 4.6 mph - N/A   Clear
1:15 AM 66.2 °F 41.0 °F 40% 30.15 in 10.0 mi ESE 5.8 mph - N/A   Clear
1:35 AM 64.9 °F 41.0 °F 42% 30.15 in 10.0 mi East 5.8 mph - N/A   Clear
2:15 AM 63.7 °F 41.0 °F 43% 30.15 in 10.0 mi ESE 4.6 mph - N/A   Clear
2:35 AM 63.0 °F 40.8 °F 44% 30.15 in 10.0 mi Calm Calm - N/A   Clear
3:35 AM 61.7 °F 41.0 °F 47% 30.15 in 10.0 mi East 8.1 mph - N/A   Clear
3:55 AM 61.7 °F 41.7 °F 48% 30.15 in 10.0 mi NE 5.8 mph - N/A   Clear
4:15 AM 61.3 °F 41.5 °F 48% 30.14 in 10.0 mi ENE 8.1 mph - N/A   Clear
4:35 AM 60.4 °F 41.4 °F 49% 30.15 in 10.0 mi Calm Calm - N/A   Clear
4:55 AM 60.8 °F 41.7 °F 49% 30.15 in 10.0 mi Calm Calm - N/A   Clear
5:15 AM 61.7 °F 41.5 °F 48% 30.15 in 10.0 mi East 3.5 mph - N/A   Clear
5:35 AM 60.8 °F 41.2 °F 48% 30.15 in 10.0 mi East 6.9 mph - N/A   Clear
5:55 AM 59.2 °F 41.0 °F 51% 30.16 in 10.0 mi Calm Calm - N/A   Clear
6:15 AM 58.8 °F 41.4 °F 52% 30.16 in 10.0 mi Calm Calm - N/A   Clear
6:35 AM 59.2 °F 41.4 °F 52% 30.18 in 10.0 mi Calm Calm - N/A   Clear
6:55 AM 59.9 °F 41.7 °F 51% 30.18 in 10.0 mi Calm Calm - N/A   Clear
7:15 AM 60.3 °F 41.2 °F 49% 30.18 in 10.0 mi ENE 4.6 mph - N/A   Clear
7:35 AM 58.6 °F 41.5 °F 53% 30.18 in 10.0 mi ENE 4.6 mph - N/A   Clear
7:55 AM 58.1 °F 41.9 °F 55% 30.18 in 10.0 mi NE 3.5 mph - N/A   Clear
8:15 AM 57.9 °F 42.3 °F 56% 30.19 in 10.0 mi NE 3.5 mph - N/A   Clear
8:35 AM 58.3 °F 42.3 °F 55% 30.19 in 10.0 mi West 3.5 mph - N/A   Clear
8:55 AM 57.9 °F 43.2 °F 58% 30.19 in 10.0 mi Calm Calm - N/A   Clear
9:15 AM 61.2 °F 43.9 °F 53% 30.20 in 10.0 mi Calm Calm - N/A   Clear
10:15 AM 68.0 °F 43.3 °F 41% 30.22 in 10.0 mi Calm Calm - N/A   Clear
10:35 AM 70.2 °F 43.2 °F 38% 30.22 in 10.0 mi Calm Calm - N/A   Clear
10:55 AM 71.6 °F 43.2 °F 36% 30.21 in 10.0 mi Calm Calm - N/A   Clear
11:15 AM 72.7 °F 43.0 °F 34% 30.21 in 10.0 mi Calm Calm - N/A   Clear
11:35 AM 74.7 °F 43.3 °F 33% 30.21 in 10.0 mi Calm Calm - N/A   Clear
11:55 AM 77.2 °F 43.9 °F 31% 30.20 in 10.0 mi Calm Calm - N/A   Clear
12:15 PM 79.3 °F 43.7 °F 28% 30.20 in 10.0 mi Calm Calm - N/A   Clear
12:35 PM 81.9 °F 43.7 °F 26% 30.19 in 10.0 mi Calm Calm - N/A   Clear
12:55 PM 84.6 °F 43.5 °F 24% 30.18 in 10.0 mi Calm Calm - N/A   Clear
1:15 PM 86.2 °F 43.0 °F 22% 30.17 in 10.0 mi Calm Calm - N/A   Clear
1:35 PM 87.6 °F 42.4 °F 21% 30.16 in 10.0 mi Calm Calm - N/A   Clear
1:55 PM 89.1 °F 41.9 °F 19% 30.15 in 10.0 mi SSW 6.9 mph - N/A   Clear
2:15 PM 90.9 °F 41.2 °F 18% 30.13 in 10.0 mi ESE 8.1 mph - N/A   Clear
2:35 PM 91.2 °F 39.9 °F 17% 30.12 in 10.0 mi SE 3.5 mph - N/A   Clear
2:55 PM 91.8 °F 40.1 °F 16% 30.10 in 10.0 mi East 5.8 mph - N/A   Clear
3:35 PM 93.0 °F 37.8 °F 14% 30.09 in 10.0 mi East 10.4 mph 16.1 mph N/A   Clear
3:55 PM 93.6 °F 38.1 °F 14% 30.09 in 10.0 mi ESE 10.4 mph - N/A   Clear
4:15 PM 93.6 °F 38.8 °F 15% 30.08 in 10.0 mi ESE 8.1 mph - N/A   Clear
4:35 PM 93.0 °F 39.7 °F 16% 30.07 in 10.0 mi SE 4.6 mph - N/A   Clear
4:55 PM 93.4 °F 39.2 °F 15% 30.07 in 10.0 mi ESE 15.0 mph 19.6 mph N/A   Clear
5:15 PM 93.2 °F 38.7 °F 15% 30.07 in 10.0 mi ESE 16.1 mph 20.7 mph N/A   Clear
5:35 PM 92.8 °F 38.7 °F 15% 30.06 in 10.0 mi East 16.1 mph 23.0 mph N/A   Clear
5:55 PM 92.3 °F 39.0 °F 16% 30.06 in 10.0 mi East 15.0 mph 19.6 mph N/A   Clear
6:15 PM 91.6 °F 39.4 °F 16% 30.06 in 10.0 mi East 15.0 mph - N/A   Clear
6:55 PM 89.8 °F 41.4 °F 18% 30.06 in 10.0 mi East 16.1 mph - N/A   Clear
7:15 PM 88.5 °F 42.1 °F 20% 30.07 in 10.0 mi East 13.8 mph - N/A   Clear
7:35 PM 86.9 °F 42.4 °F 21% 30.07 in 10.0 mi East 13.8 mph - N/A   Clear
7:55 PM 85.3 °F 42.1 °F 22% 30.08 in 10.0 mi East 11.5 mph - N/A   Clear
8:15 PM 83.8 °F 42.1 °F 23% 30.09 in 10.0 mi ESE 11.5 mph - N/A   Clear
8:35 PM 82.8 °F 42.8 °F 24% 30.09 in 10.0 mi ESE 11.5 mph - N/A   Clear
9:15 PM 81.3 °F 44.8 °F 28% 30.11 in 10.0 mi ESE 12.7 mph - N/A   Clear
9:35 PM 80.8 °F 46.4 °F 30% 30.11 in 10.0 mi ESE 15.0 mph - N/A   Clear
9:55 PM 80.1 °F 48.0 °F 32% 30.12 in 10.0 mi ESE 13.8 mph - N/A   Clear
10:15 PM 79.3 °F 49.3 °F 35% 30.12 in 10.0 mi ESE 13.8 mph - N/A   Clear
10:35 PM 78.6 °F 50.2 °F 37% 30.13 in 10.0 mi SE 15.0 mph - N/A   Clear
10:55 PM 77.9 °F 50.9 °F 39% 30.13 in 10.0 mi SE 12.7 mph - N/A   Clear
11:15 PM 77.2 °F 50.9 °F 40% 30.14 in 10.0 mi SE 13.8 mph - N/A   Clear
11:35 PM 76.5 °F 51.3 °F 41% 30.14 in 10.0 mi SE 11.5 mph 17.3 mph N/A   Clear
11:55 PM 75.6 °F 51.8 °F 43% 30.14 in 10.0 mi SE 12.7 mph - N/A   Clear